Sign-in with your pilot id or email, or register

ICAO: GABS Name / Country: Bamako / Senou / Mali
Latitude: 12.5333 Longitude: -7.95
Total Arrivals:
Strict Standards: Non-static method AirportData::getarrflights() should not be called statically, assuming $this from incompatible context in /var/www/customers/vh-7192/web/home/phpvms/core/templates/airport_info.tpl on line 18
1
Total Departures:
Strict Standards: Non-static method AirportData::getdeptflights() should not be called statically, assuming $this from incompatible context in /var/www/customers/vh-7192/web/home/phpvms/core/templates/airport_info.tpl on line 21
1
Latest Arrival: MTA5PM (DIAP-GABS) Tibor Berces Latest Departure: MTA5PM (GABS-GOOY) Tibor Berces
Metar: GABS 300800Z VRB03KT 9999 FEW020 26/22 Q1014 NOSIG
More info

Charts for GABS


NOTAM


Warning: file_get_contents(http://api.vateud.net/notams/GABS.json): failed to open stream: Redirection limit reached, aborting in /var/www/customers/vh-7192/web/home/phpvms/core/common/NOTAMSData.class.php on line 18

Warning: Invalid argument supplied for foreach() in /var/www/customers/vh-7192/web/home/phpvms/core/common/NOTAMSData.class.php on line 22

Bamako / Senou